Flag for Faroe Islands Weather past 2 weeks in Tórshavn, Faroe Islands, Faroe Islands

Now
36 °F

Sprinkles. Passing clouds.


Feels Like: 24 °F
Forecast: N/A
Wind: 21 mph from West

Location: Soervaag / Vagar

Current Time: Dec 21, 2014 at 5:43:35 PM

Latest Report: Dec 21, 2014 at 5:20 PM


Visibility: N/A

Pressure: 29.09 "Hg

Humidity: 81%

Dew point: 30 °F

Location of TórshavnLocation

Historic Weather in Tórshavn — Graph

°F

Tórshavn temperature yesterday

Maximum temperature yesterday: 43 °F (at 11:50 PM)
Minimum temperature yesterday: 34 °F (at 12:20 AM)
Average temperature yesterday: 38 °F

Past Weeks' High & Low Weather Summary

 TemperatureHumidityPressure
High46 °F (Dec 9, 7:50 AM)100% (Dec 9, 7:20 AM)29.98 "Hg (Dec 9, 7:20 AM)
Low27 °F (Dec 8, 6:20 PM)37% (Dec 15, 8:20 AM)28.29 "Hg (Dec 10, 11:51 AM)
Average37 °F77%29.12 "Hg
* Reported Dec 6 4:20 PM — Dec 21 4:20 PM, Tórshavn, Weather by CustomWeather, © 2014

Note: Actual official high and low records may vary slightly from our data, if they occured in-between our weather recording intervals... More about our weather records

Advertising

Tórshavn weather history for previous 24 hours

 ConditionsComfort  
Time TempWeatherWind HumidityBarometerVisibility
4:20 PM
Dec 21
36 °FPassing clouds.14 mph87%29.09 "HgN/A
3:50 PM34 °FSprinkles. Overcast.25 mph87%29.09 "Hg1 mi
3:20 PM37 °FRain showers. Passing clouds.15 mph81%29.12 "Hg4 mi
2:50 PM39 °FSprinkles. Partly sunny.21 mph75%29.12 "HgN/A
2:20 PM39 °FPartly sunny.18 mph70%29.12 "HgN/A
1:50 PM39 °FPartly sunny.16 mph81%29.15 "HgN/A
1:20 PM41 °FPartly sunny.21 mph76%29.15 "HgN/A
12:50 PM41 °FPartly sunny.23 mph61%29.15 "HgN/A
12:20 PM41 °FSprinkles. Partly sunny.23 mph76%29.18 "HgN/A
11:20 AM43 °FSprinkles. Partly sunny.25 mph71%29.18 "HgN/A
10:50 AM43 °FPartly sunny.25 mph87%29.18 "HgN/A
10:20 AM45 °FSprinkles. Partly sunny.21 mph87%29.18 "HgN/A
9:50 AM46 °FSprinkles. Passing clouds.15 mph87%29.18 "Hg6 mi
9:20 AM46 °FPassing clouds.7 mph87%29.18 "HgN/A
8:50 AM46 °FSprinkles. Passing clouds.16 mph93%29.21 "Hg5 mi
8:20 AM46 °FLow clouds.21 mph93%29.21 "HgN/A
7:50 AM45 °FPartly cloudy.12 mph100%29.24 "HgN/A
7:20 AM45 °FLow clouds.13 mph100%29.27 "HgN/A
6:50 AM45 °FSprinkles. Passing clouds.12 mph100%29.27 "Hg6 mi
6:20 AM45 °FSprinkles. Passing clouds.12 mph100%29.30 "Hg4 mi
5:50 AM45 °FPassing clouds.8 mph93%29.33 "Hg4 mi
5:20 AM45 °FPassing clouds.5 mph93%29.36 "Hg5 mi
4:50 AM45 °FPassing clouds.6 mph100%29.36 "Hg5 mi
4:20 AM46 °FPassing clouds.10 mph93%29.39 "Hg6 mi
3:50 AM46 °FLight rain. Passing clouds.14 mph93%29.39 "Hg6 mi
3:20 AM46 °FLight rain. Low clouds.13 mph93%29.42 "Hg5 mi
2:50 AM45 °FSprinkles. Low clouds.8 mph100%29.45 "Hg4 mi
2:20 AM45 °FSprinkles. Mostly cloudy.5 mph100%29.45 "Hg3 mi
1:50 AM43 °FLight rain. Fog.17 mph100%29.47 "Hg1 mi
1:20 AM43 °FLight rain. Low clouds.17 mph100%29.50 "Hg2 mi
12:20 AM43 °FLight rain. Low clouds.16 mph93%29.56 "Hg6 mi
11:50 PM
Dec 20
43 °FDrizzle. Low clouds.18 mph93%29.56 "Hg4 mi
11:20 PM41 °FLight rain. Low clouds.18 mph100%29.62 "Hg5 mi
10:50 PM39 °FLight rain. Low clouds.17 mph100%29.62 "Hg4 mi
10:20 PM39 °FLight rain. Low clouds.18 mph93%29.68 "Hg5 mi
9:20 PM39 °FLight rain. Overcast.15 mph87%29.71 "HgN/A
8:50 PM39 °FLight rain. Overcast.14 mph87%29.74 "HgN/A
8:20 PM39 °FLight rain. Passing clouds.15 mph87%29.77 "HgN/A
7:50 PM39 °FLight rain. Passing clouds.15 mph87%29.80 "HgN/A
7:20 PM39 °FLight rain. Passing clouds.16 mph81%29.80 "HgN/A
6:50 PM39 °FPassing clouds.14 mph81%29.80 "HgN/A
6:20 PM39 °FLight rain. Passing clouds.12 mph75%29.83 "HgN/A
5:50 PM37 °FPassing clouds.6 mph93%29.83 "HgN/A
5:20 PM36 °FPassing clouds.6 mph87%29.86 "HgN/A
Weather by CustomWeather, © 2014

See weather overviewHow to use our weather pages